SCP
0 -0 -0 -0 -0 0 -0 0 0 0 0 -0 0 0 -0 0 0 0 0 0 0 0 0 0 0 0 0 0 0 0 0 0 0 0 0 0 0 0 0 0 0 0 0 0
-0 -0 0 -0 -0 -0 -0 -0 0 -0 0 -0 -0 -0 -0 -0 0 0 0 0 0 0 0 0 0 0 0 0 -0 -0 -0 -0 0 0 0 0 0 0 0 0 0 -0 0 0
0 0 0 -0 0 0 0 0 0 -0 -0 0 0 -0 -0 -0 0 0 0 0 0 0 0 0 0 0 0 0 0 0 0 -0 0 0 0 0 0 0 0 -0 -0 0 0 0
0 0 0 -0 -0 0 0 -0 0 0 -0 0 -0 0 0 0 0 0 0 0 0 0 0 0 0 0 0 0 0 0 0 0 0 0 0 0 0 0 -0 -0 0 0 0 0
0 0 -0 0 0 0 0 0 0 0 0 -0 -0 -0 -0 0 0 0 0 0 0 0 0 0 0 0 0 0 0 0 0 0 0 0 0 0 -0 0 0 0 0 0 0 0
0 0 0 0 -0 0 0 0 -0 -0 -0 -0 -0 -0 -0 -0 0 0 0 0 0 0 0 0 0 0 0 -0 -0 0 0 0 0 0 0 0 0 0 0 0 0 0 0 0
0 0 0 -0 -0 -0 0 0 -0 -0 -0 -0 -0 -0 0 0 0 0 0 0 0 0 0 0 0 0 0 0 0 0 0 0 0 0 0 0 0 0 0 0 0 0 0 0
0 0 0 -0 -0 -0 -0 -0 -0 -0 -0 -0 -0 0 -0 -0 0 0 0 -0 -0 0 0 0 0 0 0 0 0 0 0 0 0 0 0 0 0 0 0 0 0 0 0 0
0 0 0 0 -0 -0 -0 -0 -0 -0 -0 -0 -0 -0 -0 -0 -0 -0 -0 0 -0 -0 0 0 0 0 0 0 0 0 0 0 0 0 0 0 0 0 0 0 0 0 0 0
0 0 0 -0 0 -0 -0 -0 -0 -0 -0 -0 -0 -0 -0 -0 -0 -0 -0 -0 0 -0 -0 0 0 0 -0 0 0 0 0 -0 0 0 0 0 0 0 0 0 0 0 0 0
-0 -0 0 -0 0 0 -0 -0 -0 0 -0 0 -0 -0 -0 0 0 0 -0 -0 -0 0 0 0 0 0 0 0 0 0 0 -0 -0 -0 0 0 0 0 0 0 0 0 0 0
0 0 0 -0 -0 -0 0 0 -0 0 0 0 0 0 0 0 0 0 0 0 0 -0 -0 -0 0 -0 -0 0 0 -0 -0 0 0 0 -0 -0 0 0 -0 -0 -0 -0 -0 -0
0 0 -0 -0 -0 0 0 0 0 0 -0 -0 0 0 0 0 0 0 0 0 0 0 -0 0 0 -0 -0 -0 -0 -0 0 -0 0 -0 -0 -0 -0 -0 -0 -0 -0 -0 -0 -0
0 0 -0 0 0 0 0 0 0 0 0 0 0 0 0 0 0 0 0 0 0 0 0 0 0 0 0 0 0 -0 -0 0 -0 0 0 0 -0 -0 0 0 0 0 -0 -0
0 0 0 0 0 0 0 0 0 0 0 0 0 0 0 0 0 0 0 0 0 0 0 0 0 0 0 0 0 -0 -0 -0 -0 -0 -0 -0 -0 0 0 0 0 0 0 0
0 0 0 0 0 0 0 0 0 0 0 0 0 0 0 0 0 0 0 0 0 0 0 0 0 0 0 0 0 -0 -0 0 -0 -0 0 0 0 0 0 0 0 0 0 0
0 0 0 -0 0 0 0 0 0 0 0 0 0 0 0 0 0 0 0 0 0 0 0 0 0 0 0 0 0 0 0 -0 0 -0 0 0 0 0 0 0 0 0 0 0
0 0 0 -0 0 0 0 0 0 0 0 0 0 0 0 0 0 0 0 0 0 0 0 0 0 0 0 0 0 0 0 0 0 0 0 0 0 0 0 0 0 0 0 0
-0 0 0 0 0 0 0 0 0 0 0 0 0 0 0 0 0 0 0 0 0 0 0 0 0 0 0 0 0 0 0 0 0 0 0 0 0 0 0 0 0 0 0 0
0 0 0 0 0 0 0 0 0 0 0 0 0 0 0 0 0 0 0 0 0 0 0 0 0 0 0 0 0 0 0 0 0 0 0 0 0 0 0 0 0 0 0 0
0 0 0 0 0 0 0 0 0 0 0 0 0 0 0 0 0 0 0 0 0 0 0 0 0 0 0 0 0 0 0 0 0 0 0 0 0 0 0 0 0 0 0 0
0 0 0 0 0 0 0 0 0 0 0 0 0 0 0 0 0 0 0 0 0 0 0 0 0 0 0 0 0 0 0 0 0 0 0 0 0 0 0 0 0 0 0 0
0 0 0 0 0 0 0 0 0 0 0 0 0 0 0 0 0 0 0 0 0 0 0 0 0 0 0 0 0 0 0 0 0 0 0 0 0 0 0 0 0 0 0 0
0 0 0 0 0 0 0 0 0 0 0 0 0 0 0 0 0 0 0 0 0 0 0 0 0 0 0 0 0 0 0 0 0 0 0 0 0 0 0 0 0 0 0 0
0 0 0 0 0 0 0 0 0 0 0 0 0 0 0 0 0 0 0 0 0 0 0 0 0 0 0 0 0 0 0 0 0 0 0 0 0 0 0 0 0 0 0 0
0 0 0 0 0 0 0 0 0 0 0 0 0 0 0 0 0 0 0 0 0 0 0 0 0 0 0 0 0 0 0 0 0 0 0 0 0 0 0 0 0 0 0 0
0 0 0 0 0 0 0 0 0 0 0 0 0 0 0 0 0 0 0 0 0 0 0 0 0 0 0 0 0 0 0 0 0 0 0 0 0 0 0 0 0 0 0 0
Wind_Speed_500mb
17 23 27 27 31 19 10 19 16 32 30 43 35 27 17 44 43 54 56 66 73 77 80 86 94 95 92 85 76 62 54 39 42 65 71 73 77 85 103 78 75 81 86 99
15 21 15 15 20 17 23 17 10 16 25 20 17 32 21 38 45 51 58 69 75 78 79 82 88 94 97 91 80 75 71 45 0 28 41 55 67 76 94 74 78 89 93 105
9 4 10 8 9 8 5 5 7 6 13 19 23 18 16 37 42 45 56 66 73 75 77 77 85 92 101 93 86 85 83 70 36 29 33 33 44 53 69 78 76 110 106 110
9 10 4 6 5 3 10 13 10 19 25 17 20 35 35 24 33 44 53 61 66 70 72 76 83 87 101 100 93 94 89 92 69 58 48 50 53 50 59 60 92 102 85 74
2 4 17 7 7 5 6 12 8 10 17 18 45 30 10 23 27 37 46 52 58 60 63 71 78 85 94 98 102 103 102 104 95 82 62 59 58 59 69 92 81 98 98 94
6 4 5 4 10 3 1 4 3 6 12 14 31 12 7 39 31 33 39 47 56 59 62 66 71 80 87 89 101 107 103 100 91 93 110 99 93 99 106 108 104 109 94 79
10 8 7 6 9 5 6 9 25 15 25 17 7 12 38 38 30 29 37 44 49 54 62 65 68 75 82 82 93 93 90 89 106 114 109 105 108 111 108 119 127 120 117 101
5 4 7 1 11 7 14 38 35 36 34 33 35 40 33 27 31 28 33 40 46 53 59 63 67 72 78 85 86 90 92 94 99 102 99 99 99 102 109 105 100 113 110 105
4 8 31 38 20 29 27 32 33 33 39 40 38 37 33 23 27 27 29 35 41 47 52 58 64 70 75 78 79 85 87 96 97 96 96 100 102 103 100 98 98 91 90 90
6 10 11 35 10 18 25 36 40 33 35 41 38 35 31 25 21 27 27 31 36 41 47 55 61 63 66 66 67 74 81 85 87 94 97 98 100 99 96 92 87 87 84 79
24 31 28 17 20 26 46 37 34 38 36 33 36 34 26 27 22 23 25 25 30 35 42 47 53 58 61 63 63 67 70 75 79 81 84 88 91 88 88 83 79 80 75 69
11 6 11 18 30 41 29 33 43 50 53 44 33 35 30 27 26 22 21 23 24 29 33 38 43 50 56 59 61 63 67 70 69 69 70 72 72 72 75 73 70 71 69 66
10 26 39 50 35 23 34 49 42 43 43 49 43 36 32 30 25 25 22 18 20 23 27 32 39 43 46 52 55 57 62 61 60 60 60 59 58 60 61 57 57 61 59 57
24 33 22 2 23 51 40 43 40 39 36 34 37 35 32 29 28 25 25 21 15 15 20 24 29 35 42 46 48 49 50 51 52 52 51 50 48 47 45 47 48 50 50 47
15 21 26 46 43 37 37 40 43 42 43 45 35 30 29 27 26 23 24 26 19 12 12 17 22 26 31 36 39 40 41 43 45 44 44 43 41 41 40 38 40 41 36 33
24 29 29 21 37 36 37 36 41 44 44 42 37 29 28 27 25 22 24 25 24 17 11 11 16 20 24 27 30 33 35 36 36 36 35 35 34 34 32 31 29 27 26 28
25 18 33 34 31 33 37 37 38 40 41 36 36 34 28 25 22 22 22 25 26 22 16 11 12 15 19 22 25 27 29 30 30 31 31 30 28 27 26 23 20 17 15 15
22 24 23 25 31 35 33 30 30 32 32 31 31 29 24 20 17 18 20 23 25 24 21 16 13 13 15 17 18 20 21 22 23 24 24 23 21 20 19 18 15 13 11 8
20 17 17 21 24 24 25 26 26 27 26 25 25 23 21 16 14 16 17 20 20 22 19 18 16 17 17 17 18 18 16 16 16 17 16 15 14 14 11 9 7 5 3 2
14 14 15 16 16 17 16 18 22 24 24 22 20 19 17 14 9 7 9 14 16 15 16 18 19 20 21 21 20 18 17 16 15 14 13 14 13 12 11 11 9 7 5 5
10 9 9 10 10 12 15 18 19 20 22 23 22 21 19 16 11 6 2 7 8 11 17 20 22 23 23 23 22 21 20 20 20 20 19 18 18 17 15 13 11 10 9 9
8 7 7 7 7 9 13 16 19 20 20 20 20 19 17 14 11 8 8 10 13 17 21 22 22 23 24 24 24 25 26 27 27 26 25 24 23 22 21 21 19 17 14 13
4 5 6 7 8 10 13 16 18 20 20 19 18 17 16 15 12 11 11 13 13 15 18 20 22 24 24 25 25 25 25 26 28 28 28 28 28 27 26 25 24 23 21 19
4 5 7 9 11 14 16 19 20 21 20 18 17 16 15 14 14 13 16 17 18 18 18 18 19 19 19 19 19 19 19 20 20 21 23 24 25 26 27 28 28 28 26 25
6 8 11 13 16 18 20 20 19 18 17 17 17 18 18 18 16 14 12 12 12 12 12 13 13 14 15 16 17 17 18 19 20 20 20 21 22 23 23 25 27 29 31 30
9 12 16 18 19 20 20 20 18 17 17 17 16 15 13 11 10 10 11 12 14 14 15 15 15 15 15 15 15 15 16 17 18 20 21 21 21 22 22 23 23 26 29 31
11 15 18 19 19 19 18 17 17 16 15 13 11 9 9 11 13 13 13 14 16 17 18 19 19 19 20 20 19 19 18 18 18 18 18 20 21 20 20 21 22 23 26 29
Wind_Direction_500mb
252 262 276 262 266 277 217 250 265 293 305 297 305 305 295 310 326 334 334 341 345 345 349 351 350 351 356 352 348 347 341 318 260 246 239 235 228 223 215 215 220 224 223 211
289 248 248 257 269 267 269 278 270 283 284 265 294 325 320 326 332 333 337 346 349 353 357 355 354 355 360 357 358 6 2 9 214 235 221 222 220 217 214 216 220 213 202 204
265 252 310 310 259 224 283 194 174 281 269 319 323 328 314 322 326 333 342 350 350 354 359 358 359 3 5 5 11 18 17 34 90 147 179 194 207 214 211 216 203 201 206 199
272 332 342 247 4 141 208 247 232 272 284 301 302 308 305 312 323 338 348 352 353 358 0 8 5 14 13 19 25 22 23 37 67 88 122 167 178 184 191 195 198 192 177 170
205 282 269 101 348 332 96 294 244 295 305 307 327 316 282 332 340 344 349 353 355 3 6 15 12 20 20 19 28 32 37 43 51 60 91 108 122 135 145 165 149 151 155 154
337 261 270 227 307 177 114 248 341 272 281 314 333 344 281 334 335 349 354 360 359 6 14 19 20 25 27 22 32 37 42 48 47 59 80 78 85 96 106 112 108 127 128 122
252 289 293 235 306 293 287 291 314 308 318 320 324 282 304 313 321 341 351 1 4 8 16 20 23 28 31 28 33 41 47 50 58 67 71 76 84 87 93 98 99 101 108 105
339 279 317 127 323 4 290 314 312 320 328 324 326 326 319 307 312 332 348 359 6 10 17 21 26 31 31 32 34 41 46 51 58 64 69 73 78 83 85 88 89 89 99 98
237 251 301 311 271 315 323 310 315 321 321 329 322 326 319 312 309 322 340 354 2 10 14 21 27 31 36 33 34 41 43 50 56 63 64 68 71 73 76 82 87 86 86 86
339 272 289 305 289 343 333 326 322 326 327 326 322 323 316 304 296 308 328 347 357 4 15 19 25 31 37 41 40 43 45 47 51 56 61 63 67 70 71 74 76 79 79 81
274 280 298 276 344 333 318 318 317 318 329 329 324 326 316 303 291 295 311 334 351 1 10 18 21 26 33 39 47 49 52 53 51 51 54 58 60 60 68 65 69 77 78 76
261 130 246 277 311 320 306 317 317 314 313 314 316 316 320 301 292 280 290 315 339 356 5 13 21 23 27 36 41 48 51 52 54 56 55 58 60 64 66 66 68 70 71 71
262 290 296 300 311 272 312 314 315 317 316 313 308 299 300 301 290 277 270 287 317 342 359 7 12 20 27 29 37 41 48 51 53 55 58 58 60 62 65 69 72 75 75 78
270 287 301 193 305 308 313 314 316 319 321 312 306 304 295 284 280 271 267 266 282 316 342 0 10 14 18 24 30 35 40 47 49 51 54 60 60 61 65 67 68 70 73 76
264 270 281 298 306 312 313 317 321 327 326 322 310 300 302 284 271 274 257 251 256 277 313 341 358 9 14 18 20 24 32 38 41 43 46 47 50 53 55 56 60 67 73 74
284 293 297 297 313 318 322 325 324 326 328 330 326 308 298 289 270 251 248 246 243 248 269 313 339 354 4 11 13 15 17 23 30 37 42 41 46 51 52 51 49 52 56 60
312 320 309 315 324 326 329 329 325 325 327 328 328 320 306 292 267 249 245 242 238 237 245 272 309 333 347 356 360 3 6 8 13 17 22 31 37 38 43 54 63 64 60 60
312 313 314 318 325 328 333 335 333 334 333 332 332 329 321 305 275 255 246 240 239 239 245 259 280 305 322 332 339 345 349 353 358 3 8 13 22 28 31 31 36 50 57 63
319 325 327 327 323 330 339 348 353 351 349 345 343 341 334 322 289 267 260 237 234 240 249 261 275 288 300 308 316 324 329 333 338 344 349 355 358 2 10 19 21 23 34 125
328 325 329 338 342 355 7 7 10 11 11 9 5 0 358 351 333 292 263 237 222 251 262 275 286 293 299 303 307 310 310 313 315 316 317 318 319 322 324 326 327 323 302 261
328 332 343 356 3 14 17 16 19 17 20 19 21 26 30 29 25 18 287 245 250 255 278 282 285 288 292 297 301 301 298 297 295 293 292 289 286 283 280 277 274 275 275 271
320 319 335 355 7 14 16 9 4 359 358 358 358 357 357 354 349 335 309 294 282 280 284 287 288 291 293 294 292 291 292 292 290 289 286 282 279 274 270 267 262 257 256 257
328 335 342 346 341 342 343 342 340 340 344 345 344 342 339 337 333 326 315 305 302 297 295 295 295 295 296 296 295 294 291 290 289 288 287 283 279 275 271 268 263 258 254 250
352 336 334 328 327 327 330 329 331 334 336 334 334 336 333 328 325 322 320 316 313 311 309 304 303 303 304 302 302 302 302 298 294 291 289 286 282 277 272 267 262 259 254 250
323 330 324 320 321 325 327 325 324 322 326 324 326 329 330 333 336 336 334 332 330 328 325 320 316 314 310 308 306 304 302 301 299 298 295 290 286 281 275 267 262 256 252 248
316 319 319 321 324 324 323 322 324 325 327 327 331 334 340 344 347 347 344 341 337 333 329 325 322 319 316 314 313 312 311 308 303 298 294 291 286 282 277 269 261 254 250 246
315 318 316 317 317 317 320 323 326 332 334 335 339 343 349 345 341 339 337 333 328 324 320 317 314 310 305 301 299 298 297 299 303 304 303 295 286 282 277 272 266 259 250 244
Wind_Speed_850mb
17 23 27 27 31 19 10 19 16 32 30 43 35 27 17 44 43 54 56 66 73 77 80 86 94 95 92 85 76 62 54 39 42 65 71 73 77 85 103 78 75 81 86 99
15 21 15 15 20 17 23 17 10 16 25 20 17 32 21 38 45 51 58 69 75 78 79 82 88 94 97 91 80 75 71 45 0 28 41 55 67 76 94 74 78 89 93 105
9 4 10 8 9 8 5 5 7 6 13 19 23 18 16 37 42 45 56 66 73 75 77 77 85 92 101 93 86 85 83 70 36 29 33 33 44 53 69 78 76 110 106 110
9 10 4 6 5 3 10 13 10 19 25 17 20 35 35 24 33 44 53 61 66 70 72 76 83 87 101 100 93 94 89 92 69 58 48 50 53 50 59 60 92 102 85 74
2 4 17 7 7 5 6 12 8 10 17 18 45 30 10 23 27 37 46 52 58 60 63 71 78 85 94 98 102 103 102 104 95 82 62 59 58 59 69 92 81 98 98 94
6 4 5 4 10 3 1 4 3 6 12 14 31 12 7 39 31 33 39 47 56 59 62 66 71 80 87 89 101 107 103 100 91 93 110 99 93 99 106 108 104 109 94 79
10 8 7 6 9 5 6 9 25 15 25 17 7 12 38 38 30 29 37 44 49 54 62 65 68 75 82 82 93 93 90 89 106 114 109 105 108 111 108 119 127 120 117 101
5 4 7 1 11 7 14 38 35 36 34 33 35 40 33 27 31 28 33 40 46 53 59 63 67 72 78 85 86 90 92 94 99 102 99 99 99 102 109 105 100 113 110 105
4 8 31 38 20 29 27 32 33 33 39 40 38 37 33 23 27 27 29 35 41 47 52 58 64 70 75 78 79 85 87 96 97 96 96 100 102 103 100 98 98 91 90 90
6 10 11 35 10 18 25 36 40 33 35 41 38 35 31 25 21 27 27 31 36 41 47 55 61 63 66 66 67 74 81 85 87 94 97 98 100 99 96 92 87 87 84 79
24 31 28 17 20 26 46 37 34 38 36 33 36 34 26 27 22 23 25 25 30 35 42 47 53 58 61 63 63 67 70 75 79 81 84 88 91 88 88 83 79 80 75 69
11 6 11 18 30 41 29 33 43 50 53 44 33 35 30 27 26 22 21 23 24 29 33 38 43 50 56 59 61 63 67 70 69 69 70 72 72 72 75 73 70 71 69 66
10 26 39 50 35 23 34 49 42 43 43 49 43 36 32 30 25 25 22 18 20 23 27 32 39 43 46 52 55 57 62 61 60 60 60 59 58 60 61 57 57 61 59 57
24 33 22 2 23 51 40 43 40 39 36 34 37 35 32 29 28 25 25 21 15 15 20 24 29 35 42 46 48 49 50 51 52 52 51 50 48 47 45 47 48 50 50 47
15 21 26 46 43 37 37 40 43 42 43 45 35 30 29 27 26 23 24 26 19 12 12 17 22 26 31 36 39 40 41 43 45 44 44 43 41 41 40 38 40 41 36 33
24 29 29 21 37 36 37 36 41 44 44 42 37 29 28 27 25 22 24 25 24 17 11 11 16 20 24 27 30 33 35 36 36 36 35 35 34 34 32 31 29 27 26 28
25 18 33 34 31 33 37 37 38 40 41 36 36 34 28 25 22 22 22 25 26 22 16 11 12 15 19 22 25 27 29 30 30 31 31 30 28 27 26 23 20 17 15 15
22 24 23 25 31 35 33 30 30 32 32 31 31 29 24 20 17 18 20 23 25 24 21 16 13 13 15 17 18 20 21 22 23 24 24 23 21 20 19 18 15 13 11 8
20 17 17 21 24 24 25 26 26 27 26 25 25 23 21 16 14 16 17 20 20 22 19 18 16 17 17 17 18 18 16 16 16 17 16 15 14 14 11 9 7 5 3 2
14 14 15 16 16 17 16 18 22 24 24 22 20 19 17 14 9 7 9 14 16 15 16 18 19 20 21 21 20 18 17 16 15 14 13 14 13 12 11 11 9 7 5 5
10 9 9 10 10 12 15 18 19 20 22 23 22 21 19 16 11 6 2 7 8 11 17 20 22 23 23 23 22 21 20 20 20 20 19 18 18 17 15 13 11 10 9 9
8 7 7 7 7 9 13 16 19 20 20 20 20 19 17 14 11 8 8 10 13 17 21 22 22 23 24 24 24 25 26 27 27 26 25 24 23 22 21 21 19 17 14 13
4 5 6 7 8 10 13 16 18 20 20 19 18 17 16 15 12 11 11 13 13 15 18 20 22 24 24 25 25 25 25 26 28 28 28 28 28 27 26 25 24 23 21 19
4 5 7 9 11 14 16 19 20 21 20 18 17 16 15 14 14 13 16 17 18 18 18 18 19 19 19 19 19 19 19 20 20 21 23 24 25 26 27 28 28 28 26 25
6 8 11 13 16 18 20 20 19 18 17 17 17 18 18 18 16 14 12 12 12 12 12 13 13 14 15 16 17 17 18 19 20 20 20 21 22 23 23 25 27 29 31 30
9 12 16 18 19 20 20 20 18 17 17 17 16 15 13 11 10 10 11 12 14 14 15 15 15 15 15 15 15 15 16 17 18 20 21 21 21 22 22 23 23 26 29 31
11 15 18 19 19 19 18 17 17 16 15 13 11 9 9 11 13 13 13 14 16 17 18 19 19 19 20 20 19 19 18 18 18 18 18 20 21 20 20 21 22 23 26 29
Wind_Direction_850mb
252 262 276 262 266 277 217 250 265 293 305 297 305 305 295 310 326 334 334 341 345 345 349 351 350 351 356 352 348 347 341 318 260 246 239 235 228 223 215 215 220 224 223 211
289 248 248 257 269 267 269 278 270 283 284 265 294 325 320 326 332 333 337 346 349 353 357 355 354 355 360 357 358 6 2 9 214 235 221 222 220 217 214 216 220 213 202 204
265 252 310 310 259 224 283 194 174 281 269 319 323 328 314 322 326 333 342 350 350 354 359 358 359 3 5 5 11 18 17 34 90 147 179 194 207 214 211 216 203 201 206 199
272 332 342 247 4 141 208 247 232 272 284 301 302 308 305 312 323 338 348 352 353 358 0 8 5 14 13 19 25 22 23 37 67 88 122 167 178 184 191 195 198 192 177 170
205 282 269 101 348 332 96 294 244 295 305 307 327 316 282 332 340 344 349 353 355 3 6 15 12 20 20 19 28 32 37 43 51 60 91 108 122 135 145 165 149 151 155 154
337 261 270 227 307 177 114 248 341 272 281 314 333 344 281 334 335 349 354 360 359 6 14 19 20 25 27 22 32 37 42 48 47 59 80 78 85 96 106 112 108 127 128 122
252 289 293 235 306 293 287 291 314 308 318 320 324 282 304 313 321 341 351 1 4 8 16 20 23 28 31 28 33 41 47 50 58 67 71 76 84 87 93 98 99 101 108 105
339 279 317 127 323 4 290 314 312 320 328 324 326 326 319 307 312 332 348 359 6 10 17 21 26 31 31 32 34 41 46 51 58 64 69 73 78 83 85 88 89 89 99 98
237 251 301 311 271 315 323 310 315 321 321 329 322 326 319 312 309 322 340 354 2 10 14 21 27 31 36 33 34 41 43 50 56 63 64 68 71 73 76 82 87 86 86 86
339 272 289 305 289 343 333 326 322 326 327 326 322 323 316 304 296 308 328 347 357 4 15 19 25 31 37 41 40 43 45 47 51 56 61 63 67 70 71 74 76 79 79 81
274 280 298 276 344 333 318 318 317 318 329 329 324 326 316 303 291 295 311 334 351 1 10 18 21 26 33 39 47 49 52 53 51 51 54 58 60 60 68 65 69 77 78 76
261 130 246 277 311 320 306 317 317 314 313 314 316 316 320 301 292 280 290 315 339 356 5 13 21 23 27 36 41 48 51 52 54 56 55 58 60 64 66 66 68 70 71 71
262 290 296 300 311 272 312 314 315 317 316 313 308 299 300 301 290 277 270 287 317 342 359 7 12 20 27 29 37 41 48 51 53 55 58 58 60 62 65 69 72 75 75 78
270 287 301 193 305 308 313 314 316 319 321 312 306 304 295 284 280 271 267 266 282 316 342 0 10 14 18 24 30 35 40 47 49 51 54 60 60 61 65 67 68 70 73 76
264 270 281 298 306 312 313 317 321 327 326 322 310 300 302 284 271 274 257 251 256 277 313 341 358 9 14 18 20 24 32 38 41 43 46 47 50 53 55 56 60 67 73 74
284 293 297 297 313 318 322 325 324 326 328 330 326 308 298 289 270 251 248 246 243 248 269 313 339 354 4 11 13 15 17 23 30 37 42 41 46 51 52 51 49 52 56 60
312 320 309 315 324 326 329 329 325 325 327 328 328 320 306 292 267 249 245 242 238 237 245 272 309 333 347 356 360 3 6 8 13 17 22 31 37 38 43 54 63 64 60 60
312 313 314 318 325 328 333 335 333 334 333 332 332 329 321 305 275 255 246 240 239 239 245 259 280 305 322 332 339 345 349 353 358 3 8 13 22 28 31 31 36 50 57 63
319 325 327 327 323 330 339 348 353 351 349 345 343 341 334 322 289 267 260 237 234 240 249 261 275 288 300 308 316 324 329 333 338 344 349 355 358 2 10 19 21 23 34 125
328 325 329 338 342 355 7 7 10 11 11 9 5 0 358 351 333 292 263 237 222 251 262 275 286 293 299 303 307 310 310 313 315 316 317 318 319 322 324 326 327 323 302 261
328 332 343 356 3 14 17 16 19 17 20 19 21 26 30 29 25 18 287 245 250 255 278 282 285 288 292 297 301 301 298 297 295 293 292 289 286 283 280 277 274 275 275 271
320 319 335 355 7 14 16 9 4 359 358 358 358 357 357 354 349 335 309 294 282 280 284 287 288 291 293 294 292 291 292 292 290 289 286 282 279 274 270 267 262 257 256 257
328 335 342 346 341 342 343 342 340 340 344 345 344 342 339 337 333 326 315 305 302 297 295 295 295 295 296 296 295 294 291 290 289 288 287 283 279 275 271 268 263 258 254 250
352 336 334 328 327 327 330 329 331 334 336 334 334 336 333 328 325 322 320 316 313 311 309 304 303 303 304 302 302 302 302 298 294 291 289 286 282 277 272 267 262 259 254 250
323 330 324 320 321 325 327 325 324 322 326 324 326 329 330 333 336 336 334 332 330 328 325 320 316 314 310 308 306 304 302 301 299 298 295 290 286 281 275 267 262 256 252 248
316 319 319 321 324 324 323 322 324 325 327 327 331 334 340 344 347 347 344 341 337 333 329 325 322 319 316 314 313 312 311 308 303 298 294 291 286 282 277 269 261 254 250 246
315 318 316 317 317 317 320 323 326 332 334 335 339 343 349 345 341 339 337 333 328 324 320 317 314 310 305 301 299 298 297 299 303 304 303 295 286 282 277 272 266 259 250 244